Zurück zum Katalog

SDA_1681

AktivWissenschaftPO
NORAD 65991·PAYLOAD·🇺🇸 United States

Gestartet Oct 15, 2025 von Vandenberg Space Force Base

Loading…

Nächste Überflüge (nächste 24 Stunden)

TLE

AktuellSource: Space-Track

Epoche: Sep 14, 2026, 01:00 UTC

1 65991U 25230T   26257.04180648  .00000151  00000-0  12238-3 0  9991
2 65991  81.2999 129.1068 0003988 334.8048  25.2914 13.85313054 46124

Verfolge SDA_1681 in Echtzeit mit AllMySat

Download on the App Store